Weather History for Richlands, VA

Change the Weather History Date:

Tuesday, April 2, 2013

  Actual Average (KBLF) Record (KBLF)
Temperature  
Mean Temperature 38 °F 51 °F  
Max Temperature 46 °F 60 °F 87 °F (2010)
Min Temperature 29 °F 41 °F 22 °F (1992)
Degree Days  
Heating Degree Days 28 15  
Month to date heating degree days 30  
Since 1 July heating degree days 4139  
Cooling Degree Days 0 0  
Month to date cooling degree days 0  
Year to date cooling degree days 4  
Moisture  
Dew Point 17 °F    
Average Humidity 47    
Maximum Humidity 69    
Minimum Humidity 27    
Precipitation  
Precipitation 0.00 in 0.11 in 1.15 in (2005)
Month to date precipitation 0.21  
Year to date precipitation 9.38  
Snow  
Snow 0.00 in - - ()
Month to date snowfall  
Since 1 July snowfall  
Snow Depth -    
Sea Level Pressure  
Sea Level Pressure 30.09 in    
Wind  
Wind Speed 6 mph (NW)    
Max Wind Speed 13 mph    
Max Gust Speed 22 mph    
Visibility 10 miles    
Events      
T = Trace of Precipitation, MM = Missing Value Source: NWS Daily Summary

Daily Weather History Graph

Daily Weather History Graph

Search for Another Location

Airport:

Trip Planner

Search our weather history database for the weather conditions in past years. The results will help you decide how hot, cold, wet, or windy it might be!

Date:

Astronomy

Apr. 02, 2013 Rise Set
Actual Time 7:11 AM EDT 7:50 PM EDT
Civil Twilight 6:44 AM EDT 8:17 PM EDT
Nautical Twilight 6:13 AM EDT 8:48 PM EDT
Astronomical Twilight 5:42 AM EDT 9:19 PM EDT
Moon 1:48 AM EDT (4/2) 12:06 PM EDT (4/2)
Length of Visible Light 13h 32m
Length of Day
12h 39m
Waning Gibbous, 56% of the Moon is Illuminated
Apr 2
Waning Gibbous
Apr 3
Last Quarter
Apr 10
New
Apr 18
First Quarter
Apr 25
Full

Hourly Weather History & Observations

Time (EDT) Temp. Windchill Dew Point Humidity Pressure Visibility Wind Dir Wind Speed Gust Speed Precip Events Conditions
12:15 AM 36.0 °F 29.6 °F 24.6 °F 63% 30.01 in 10.0 mi NNW 8.1 mph - N/A   Scattered Clouds
12:35 AM 35.8 °F 31.9 °F 24.3 °F 63% 30.01 in 10.0 mi NNW 4.6 mph - N/A   Scattered Clouds
12:55 AM 35.6 °F 30.7 °F 23.5 °F 62% 30.01 in 10.0 mi NW 5.8 mph - N/A   Scattered Clouds
1:15 AM 35.4 °F 30.5 °F 23.0 °F 61% 30.01 in 10.0 mi NW 5.8 mph - N/A   Scattered Clouds
1:35 AM 35.2 °F 30.3 °F 22.8 °F 61% 30.01 in 10.0 mi NNW 5.8 mph - N/A   Mostly Cloudy
1:55 AM 34.9 °F 29.9 °F 22.6 °F 61% 30.01 in 10.0 mi NW 5.8 mph - N/A   Overcast
2:15 AM 34.7 °F 29.6 °F 22.8 °F 62% 30.01 in 10.0 mi NW 5.8 mph - N/A   Mostly Cloudy
2:35 AM 34.2 °F 29.0 °F 22.8 °F 63% 30.01 in 10.0 mi NW 5.8 mph - N/A   Scattered Clouds
2:55 AM 33.6 °F 28.4 °F 22.6 °F 64% 30.01 in 10.0 mi NW 5.8 mph - N/A   Clear
3:15 AM 33.3 °F 27.9 °F 22.1 °F 64% 30.01 in 10.0 mi NW 5.8 mph - N/A   Clear
3:35 AM 32.9 °F 28.5 °F 21.6 °F 63% 30.02 in 10.0 mi NW 4.6 mph - N/A   Clear
3:55 AM 32.2 °F - 22.1 °F 66% 30.02 in 10.0 mi Calm Calm - N/A   Scattered Clouds
4:15 AM 31.8 °F 27.3 °F 22.6 °F 69% 30.02 in 10.0 mi NNW 4.6 mph - N/A   Scattered Clouds
4:35 AM 31.6 °F 26.0 °F 21.7 °F 67% 30.03 in 10.0 mi NNW 5.8 mph - N/A   Mostly Cloudy
4:55 AM 31.1 °F 25.4 °F 21.2 °F 67% 30.04 in 10.0 mi NNW 5.8 mph - N/A   Overcast
5:15 AM 31.1 °F 26.4 °F 21.0 °F 66% 30.05 in 10.0 mi NW 4.6 mph - N/A   Mostly Cloudy
5:35 AM 30.9 °F 25.2 °F 20.5 °F 65% 30.05 in 10.0 mi NNW 5.8 mph - N/A   Mostly Cloudy
5:55 AM 30.2 °F 23.4 °F 20.3 °F 67% 30.06 in 10.0 mi NNW 6.9 mph - N/A   Mostly Cloudy
6:15 AM 30.2 °F 25.4 °F 19.8 °F 65% 30.07 in 10.0 mi NNW 4.6 mph - N/A   Mostly Cloudy
6:35 AM 30.0 °F 26.5 °F 19.0 °F 64% 30.08 in 10.0 mi NNW 3.5 mph - N/A   Scattered Clouds
6:55 AM 29.8 °F 26.3 °F 18.5 °F 63% 30.08 in 10.0 mi WNW 3.5 mph - N/A   Clear
7:15 AM 29.3 °F 23.2 °F 19.4 °F 67% 30.09 in 10.0 mi WNW 5.8 mph - N/A   Clear
7:35 AM 29.5 °F 23.4 °F 19.2 °F 66% 30.11 in 10.0 mi WNW 5.8 mph - N/A   Clear
7:55 AM 30.0 °F 25.2 °F 18.7 °F 63% 30.12 in 10.0 mi WNW 4.6 mph - N/A   Clear
8:15 AM 30.6 °F 25.8 °F 18.7 °F 61% 30.12 in 10.0 mi WNW 4.6 mph - N/A   Clear
8:35 AM 31.1 °F - 18.9 °F 61% 30.12 in 10.0 mi Calm Calm - N/A   Clear
8:55 AM 31.3 °F 27.9 °F 19.0 °F 61% 30.12 in 10.0 mi WNW 3.5 mph - N/A   Clear
9:15 AM 31.8 °F 26.2 °F 19.6 °F 61% 30.13 in 10.0 mi WNW 5.8 mph - N/A   Clear
9:35 AM 32.0 °F 26.4 °F 18.3 °F 57% 30.13 in 10.0 mi NW 5.8 mph - N/A   Scattered Clouds
9:55 AM 32.7 °F 27.3 °F 17.8 °F 54% 30.14 in 10.0 mi NNW 5.8 mph - N/A   Scattered Clouds
10:35 AM 34.2 °F 26.8 °F 18.3 °F 52% 30.15 in 10.0 mi West 9.2 mph - N/A   Clear
10:55 AM 34.9 °F 27.1 °F 18.7 °F 52% 30.15 in 10.0 mi West 10.4 mph 18.4 mph N/A   Clear
11:15 AM 35.2 °F 29.5 °F 17.6 °F 49% 30.15 in 10.0 mi NW 6.9 mph - N/A   Clear
11:55 AM 36.5 °F 31.0 °F 17.4 °F 46% 30.15 in 10.0 mi NW 6.9 mph - N/A   Clear
12:15 PM 36.9 °F 30.1 °F 14.0 °F 39% 30.15 in 10.0 mi WNW 9.2 mph - N/A   Clear
12:35 PM 37.8 °F 30.2 °F 13.3 °F 37% 30.14 in 10.0 mi NNW 11.5 mph 16.1 mph N/A   Clear
1:15 PM 39.9 °F 33.9 °F 13.5 °F 34% 30.13 in 10.0 mi NNW 9.2 mph - N/A   Clear
1:35 PM 40.1 °F 33.2 °F 12.7 °F 33% 30.12 in 10.0 mi NNW 11.5 mph 19.6 mph N/A   Clear
2:15 PM 40.6 °F 37.5 °F 15.6 °F 36% 30.11 in 10.0 mi WSW 4.6 mph - N/A   Clear
2:35 PM 41.9 °F 35.9 °F 14.9 °F 34% 30.10 in 10.0 mi NNW 10.4 mph 17.3 mph N/A   Clear
2:55 PM 43.0 °F 37.2 °F 15.4 °F 33% 30.09 in 10.0 mi NNW 10.4 mph - N/A   Clear
3:15 PM 42.3 °F 37.9 °F 13.8 °F 32% 30.09 in 10.0 mi WSW 6.9 mph - N/A   Clear
3:35 PM 43.7 °F 40.3 °F 14.5 °F 31% 30.08 in 10.0 mi WNW 5.8 mph 16.1 mph N/A   Clear
3:55 PM 43.9 °F 38.8 °F 15.3 °F 32% 30.08 in 10.0 mi WNW 9.2 mph 16.1 mph N/A   Clear
4:15 PM 44.8 °F 39.0 °F 14.7 °F 30% 30.08 in 10.0 mi West 11.5 mph 21.9 mph N/A   Clear
4:35 PM 44.6 °F 40.2 °F 13.5 °F 28% 30.08 in 10.0 mi NW 8.1 mph 20.7 mph N/A   Clear
4:55 PM 45.1 °F 39.9 °F 14.7 °F 29% 30.07 in 10.0 mi West 10.4 mph - N/A   Clear
5:15 PM 45.0 °F 39.7 °F 14.5 °F 29% 30.07 in 10.0 mi WNW 10.4 mph - N/A   Clear
5:35 PM 46.0 °F 40.2 °F 15.1 °F 29% 30.07 in 10.0 mi WNW 12.7 mph 21.9 mph N/A   Clear
5:55 PM 44.6 °F 39.7 °F 11.8 °F 27% 30.08 in 10.0 mi West 9.2 mph 18.4 mph N/A   Clear
6:15 PM 44.6 °F 41.4 °F 12.9 °F 28% 30.08 in 10.0 mi NNW 5.8 mph - N/A   Clear
6:35 PM 43.5 °F 38.3 °F 11.5 °F 27% 30.09 in 10.0 mi WNW 9.2 mph 18.4 mph N/A   Clear
6:55 PM 43.2 °F 37.9 °F 12.0 °F 28% 30.09 in 10.0 mi WNW 9.2 mph - N/A   Clear
7:15 PM 42.6 °F 37.2 °F 11.7 °F 28% 30.08 in 10.0 mi NW 9.2 mph - N/A   Clear
7:35 PM 41.9 °F 39.0 °F 11.8 °F 29% 30.09 in 10.0 mi NW 4.6 mph - N/A   Clear
7:55 PM 41.0 °F 37.1 °F 11.7 °F 30% 30.09 in 10.0 mi NW 5.8 mph - N/A   Clear
8:15 PM 40.5 °F 37.3 °F 11.3 °F 30% 30.10 in 10.0 mi NW 4.6 mph - N/A   Clear
8:35 PM 39.9 °F 37.8 °F 11.8 °F 32% 30.10 in 10.0 mi WNW 3.5 mph - N/A   Clear
8:55 PM 39.4 °F 37.2 °F 11.8 °F 32% 30.11 in 10.0 mi WNW 3.5 mph - N/A   Clear
9:15 PM 39.4 °F - 10.9 °F 31% 30.12 in 10.0 mi Calm Calm - N/A   Clear
9:35 PM 39.2 °F 35.9 °F 10.6 °F 31% 30.12 in 10.0 mi West 4.6 mph - N/A   Clear
9:55 PM 38.7 °F 34.3 °F 10.2 °F 31% 30.13 in 10.0 mi West 5.8 mph - N/A   Clear
10:15 PM 38.1 °F 34.6 °F 10.0 °F 31% 30.13 in 10.0 mi West 4.6 mph - N/A   Clear
10:55 PM 37.6 °F 34.0 °F 10.4 °F 33% 30.15 in 10.0 mi NNW 4.6 mph - N/A   Clear
11:15 PM 36.5 °F 31.8 °F 11.7 °F 36% 30.15 in 10.0 mi NNW 5.8 mph - N/A   Clear
11:55 PM 35.6 °F 29.9 °F 11.8 °F 38% 30.16 in 10.0 mi NNW 6.9 mph - N/A   Clear